Regional Weather Roundup
Issued by NWS Charleston, SC

Current Version | Previous Version | Graphics & Text | Print | Product List | Glossary On
Versions: 1 2 3 4 5 6 7 8 9 10 11 12 13 14 15 16 17 18 19 20 21 22 23 24 25 26 27 28 29 30 31 32 33 34 35 36 37 38 39 40 41 42 43 44 45 46 47 48 49 50
000 ASUS42 KCHS 272213 RWRCHS REGIONAL WEATHER ROUNDUP NATIONAL WEATHER SERVICE CHARLESTON SC 600 PM EDT FRI MAY 27 2016 NOTE: "FAIR" INDICATES FEW OR NO CLOUDS BELOW 12,000 FEET WITH NO SIGNIFICANT WEATHER AND/OR OBSTRUCTIONS TO VISIBILITY. NOT ALL STATIONS ARE QUALITY CONTROLLED. USE DATA WITH CAUTION... ESPECIALLY DEWPOINT OBSERVATIONS. SCZ027-030-031-034>040-042>050-272300- ...SOUTHEAST SOUTH CAROLINA... CITY SKY/WX TMP DP RH WIND PRES REMARKS N CHARLESTON MOSUNNY 81 60 48 SE10 30.08S WATERFRONT PRK N/A 81 65 58 E13 30.07F MOUNT PLEASANT FAIR 81 63 54 E6 30.09S JOHNS ISLAND FAIR 81 64 57 E13 30.09S PINOPOLIS N/A 88 59 37 SE5 29.99F MONCKS CORNER FAIR 81 54 39 SE8 30.08S SUMMERVILLE FAIR 86 59 39 SE6 30.08S BEAUFORT MCAS SUNNY 81 63 54 E13 30.08S BEAUFORT ARPT FAIR 81 61 50 E13 30.07F HILTON HEAD IS SUNNY 81 66 61 NE7 30.09F WALTERBORO CLEAR 86 57 37 SE9 30.08S ALLENDALE FAIR 84 59 42 E7G14 30.04F ...SOUTHERN MIDLANDS AND PEE DEE... CITY SKY/WX TMP DP RH WIND PRES REMARKS GEORGETOWN FAIR 79 59 50 E9 30.11S KINGSTREE FAIR 82 45 26 E12G17 30.08S ORANGEBURG MOSUNNY 86 52 30 E8 30.06F BARNWELL FAIR 90 61 37 SE10 30.05F AIKEN FAIR 82 59 44 SE13 30.08F MANNING FAIR 84 54 34 E7 30.08R COLUMBIA MOSUNNY 87 60 40 SE13 30.04F SUMTER MOSUNNY 87 58 37 SE12 30.04F FLORENCE SUNNY 86 60 41 SE12 30.08S MYRTLE BEACH SUNNY 81 59 47 SE12 30.13F N MYRTLE BEACH SUNNY 78 62 57 SE10 30.11F $$ GAZ063-065-086>088-099>101-113>116-118-119-134>141-150-272300- ...SOUTHEAST GEORGIA... CITY SKY/WX TMP DP RH WIND PRES REMARKS SAVANNAH ARPT MOSUNNY 82 62 50 E13 30.06F HUNTER AAF MOSUNNY 79 65 62 E9 30.04F FORT STEWART MOSUNNY 82 62 50 E14 30.02F STATESBORO SUNNY 85 62 45 SE8 30.05S SYLVANIA CLEAR 85 59 40 SE8G16 30.06F CLAXTON FAIR 84 60 44 E9 30.04F ...CSRA...CENTRAL AND FAR SOUTHEAST GEORGIA... CITY SKY/WX TMP DP RH WIND PRES REMARKS THOMSON PTSUNNY 87 65 47 E8 30.08F AUGUSTA-BUSH SUNNY 86 59 39 SE8 30.02F AUGUSTA-DANIEL MOSUNNY 88 59 37 E12 30.04F SWAINSBORO FAIR 86 54 32 E12G18 30.03F VIDALIA MOSUNNY 86 59 39 E12G17 30.02F EASTMAN FAIR 88 55 31 SE7 30.04F HAZLEHURST FAIR 87 57 36 E9 30.01F ALMA SUNNY 84 62 47 E8G17 30.01F WAYCROSS SUNNY 83 63 51 SE13G20 30.01F JESUP FAIR 79 61 53 SE12 30.04F BAXLEY FAIR 86 61 42 E9G18 30.01F BRUNSWICK PTSUNNY 84 68 58 NE14 30.06F SAINT SIMONS SUNNY 80 67 64 NE12 30.05F $$ SCZ027-028-034-036>038-045-046-048>050-GAZ119-141-272300- ...LAKE AND SUPPLEMENTAL COASTAL OBSERVATIONS... STATION/POSITION TIME TEMP WIND PRES WAVE SWELL AIR SEA DIR/SP/G HT/PER HT/PER/DIR (UTC) (F) (DEG/KT/KT) (MB) (FT/S) (FT/S/D) WINYAH BAY 2045 77 80/ 10 1019.0 LAKE MURRAY 2100 87 160/ 3/ 4 1017.3F ACE BASIN NERRS NOT AVBL FORT PULASKI 2100 76 78 70/ 14/ 16 1019.0F SAPELO ISLAND 2100 80 60/ 11 1018.0S $$ ANZ835-935-AMZ111-154-330-350-352-354-370-450-454-472-272300- ...C-MAN AND BUOY OBSERVATIONS... STATION/POSITION TIME TEMP WIND PRES WAVE SWELL AIR SEA DIR/SP/G HT/PER HT/PER/DIR (UTC) (F) (DEG/KT/KT) (MB) (FT/S) (FT/S/D) BUOY 41004 2150 76 77 40/ 16/ 17 1018.1F 3/ 7 2/ 7 BUOY 41008 2150 77 77 60/ 14/ 16 1017.5F 3/ 6 2/120/ 8 FOLLY BEACH CMAN 2200 77 70/ 12/ 13 1019.1F CAPERS NEARSHORE 2108 76 77 80/ 14/ 17 1018.9F FRIPP NEARSHORE 2108 76 77 80/ 14/ 17 1018.0F STATION/POSITION TIME TEMP WIND PRES WAVE SWELL AIR SEA DIR/SP/G HT/PER HT/PER/DIR (UTC) (F) (DEG/KT/KT) (MB) (FT/S) (FT/S/D) 5E ST. MARYS GA 2201 78 N/A 3/ 6 FRYING PAN BUOY 2100 76 76 70/ 12/ 14 1019.1F BUOY 41025 2150 77 78 130/ 12/ 12 1020.4F 2/ 4 2/110/ 7 CAPE LOOKOUT NC 2200 75 110/ 7/ 8 1019.9F BUOY 41002 2150 77 78 80/ 19/ 23 1017.1F 5/ 5 2/110/ 8 BUOY 41010 2120 78 78 40/ 16/ 17 1015.4F ST AUGUSTINE FL 2200 78 80 80/ 11/ 12 1017.4F $$

USA.gov is the U.S. government's official web portal to all federal, state and local government web resources and services.